TimePST,TemperatureF,Dew PointF,Humidity,Sea Level PressureIn,VisibilityMPH,Wind Direction,Wind SpeedMPH,Gust SpeedMPH,PrecipitationIn,Events,Conditions,WindDirDegrees,DateUTC
12:53 AM,32.0,30.0,92,30.32,0.1,SSE,3.5,-,N/A,Fog,Fog,150,2013-01-18 08:53:00
1:53 AM,30.9,28.9,92,30.32,0.2,SSE,3.5,-,N/A,Fog,Light Freezing Fog,150,2013-01-18 09:53:00
2:53 AM,30.9,28.9,92,30.31,0.2,SE,3.5,-,N/A,Fog,Light Freezing Fog,140,2013-01-18 10:53:00
3:30 AM,30.2,30.2,100,30.27,0.1,Calm,Calm,-,N/A,Fog,Light Freezing Fog,0,2013-01-18 11:30:00
3:53 AM,30.9,28.9,92,30.30,0.2,Calm,Calm,-,N/A,Fog,Light Freezing Fog,0,2013-01-18 11:53:00
4:53 AM,32.0,28.9,88,30.29,0.2,Calm,Calm,-,N/A,Fog,Fog,0,2013-01-18 12:53:00
5:53 AM,32.0,30.9,96,30.29,0.2,Calm,Calm,-,N/A,Fog,Fog,0,2013-01-18 13:53:00
6:08 AM,32.0,30.2,93,30.26,0.2,Calm,Calm,-,N/A,Fog,Fog,0,2013-01-18 14:08:00
6:36 AM,32.0,30.2,93,30.26,0.2,Calm,Calm,-,N/A,Fog,Fog,0,2013-01-18 14:36:00
6:51 AM,32.0,30.2,93,30.26,0.2,Calm,Calm,-,N/A,Fog,Fog,0,2013-01-18 14:51:00
6:53 AM,32.0,30.9,96,30.30,0.2,Calm,Calm,-,N/A,Fog,Fog,0,2013-01-18 14:53:00
7:53 AM,32.0,30.0,92,30.30,0.2,ESE,4.6,-,N/A,Fog,Fog,120,2013-01-18 15:53:00
7:55 AM,32.0,30.2,93,30.27,0.2,ESE,4.6,-,N/A,Fog,Fog,120,2013-01-18 15:55:00
8:11 AM,32.0,30.2,93,30.27,0.2,ESE,3.5,-,N/A,Fog,Fog,120,2013-01-18 16:11:00
8:36 AM,32.0,30.2,93,30.27,0.1,Calm,Calm,-,N/A,Fog,Fog,0,2013-01-18 16:36:00
8:53 AM,33.1,32.0,96,30.32,0.1,Calm,Calm,-,N/A,Fog,Fog,0,2013-01-18 16:53:00
9:53 AM,34.0,32.0,92,30.33,0.1,Calm,Calm,-,N/A,Fog,Fog,0,2013-01-18 17:53:00
10:53 AM,34.0,33.1,96,30.34,0.1,Calm,Calm,-,N/A,Fog,Fog,0,2013-01-18 18:53:00
11:53 AM,35.1,33.1,92,30.32,0.1,Calm,Calm,-,N/A,Fog,Fog,0,2013-01-18 19:53:00
12:30 PM,35.6,33.8,93,30.29,0.1,Calm,Calm,-,N/A,Fog,Fog,0,2013-01-18 20:30:00
12:38 PM,35.6,33.8,93,30.29,0.1,Calm,Calm,-,N/A,Fog,Fog,0,2013-01-18 20:38:00
12:53 PM,36.0,34.0,93,30.33,0.1,NNW,3.5,-,N/A,Fog,Fog,340,2013-01-18 20:53:00
1:53 PM,37.0,34.0,89,30.32,0.1,North,6.9,-,N/A,,Overcast,360,2013-01-18 21:53:00
2:53 PM,37.0,34.0,89,30.32,0.1,North,5.8,-,N/A,,Overcast,10,2013-01-18 22:53:00
3:53 PM,37.0,34.0,89,30.33,0.1,North,4.6,-,N/A,,Overcast,360,2013-01-18 23:53:00
4:53 PM,36.0,34.0,93,30.33,0.1,North,6.9,-,N/A,,Overcast,10,2013-01-19 00:53:00
5:53 PM,36.0,33.1,89,30.33,0.5,NNE,4.6,-,N/A,,Overcast,20,2013-01-19 01:53:00
6:53 PM,35.1,33.1,92,30.34,0.5,North,4.6,-,N/A,,Overcast,360,2013-01-19 02:53:00
7:53 PM,35.1,33.1,92,30.34,0.5,Calm,Calm,-,N/A,,Overcast,0,2013-01-19 03:53:00
8:08 PM,35.6,33.8,93,30.31,0.2,NNW,3.5,-,N/A,Fog,Fog,340,2013-01-19 04:08:00
8:35 PM,35.6,33.8,93,30.32,0.2,Calm,Calm,-,N/A,Fog,Fog,0,2013-01-19 04:35:00
8:53 PM,35.1,33.1,92,30.35,0.2,NE,3.5,-,N/A,Fog,Fog,50,2013-01-19 04:53:00
9:16 PM,33.8,32.0,93,30.33,0.2,Calm,Calm,-,N/A,Fog,Fog,0,2013-01-19 05:16:00
9:26 PM,33.8,32.0,93,30.33,0.2,NE,3.5,-,N/A,Fog,Fog,50,2013-01-19 05:26:00
9:53 PM,33.1,30.9,92,30.37,0.2,North,3.5,-,N/A,Fog,Fog,10,2013-01-19 05:53:00
10:53 PM,33.1,30.9,92,30.37,0.2,North,6.9,-,N/A,Fog,Fog,350,2013-01-19 06:53:00
11:53 PM,32.0,30.0,92,30.37,0.2,North,6.9,-,N/A,Fog,Fog,10,2013-01-19 07:53:00